{"data":{"norad_id":55669,"intl_designator":"2023-021AT","name":"STARLINK-5459","alt_names":[],"object_type":"PAYLOAD","status":"ACTIVE","operator":null,"country":"US","launch_date":"2023-02-17","launch_site_code":"AFWTR","launch_vehicle":null,"mission":null,"orbit_class":"UNKNOWN","rcs_meters":null,"size_class":null,"mass_kg":null,"dimensions":null,"purposes":["comms"],"wikipedia_slug":null,"has_3d_model":false,"image_url":null,"decayed_at":null,"tle_current":{"epoch":"2026-09-20T11:46:56.095392Z","epoch_age_seconds":103860,"freshness":"FRESH","line1":"1 55669U 23021AT  26263.49092703  .00000147  00000+0  20113-4 0  9994","line2":"2 55669  70.0006  33.3026 0003363 267.9847  92.0927 14.98338811198453","mean_motion":14.98338811,"eccentricity":0.0003363,"inclination_deg":70.0006,"raan_deg":33.3026,"arg_perigee_deg":267.9847,"mean_anomaly_deg":92.0927,"bstar":2.0113e-5,"rev_number":19845,"period_min":96.10643396729,"perigee_km":569.69130308126,"apogee_km":574.36598449327,"semimajor_km":6950.1656437873,"source":"CELESTRAK","updated_at":"2026-09-21T09:00:33.309472Z"}}}